Regional Weather Roundup
Issued by NWS

Home | Current Version | Previous Version | Graphics & Text | Print | Product List | Glossary On
Versions: 1 2 3 4 5 6 7 8 9 10 11 12 13 14 15 16 17 18 19 20 21 22 23 24 25 26 27 28 29 30 31 32 33 34 35 36 37 38 39 40 41 42 43 44 45 46 47 48 49 50
000
ASUS43 KMPX 220001
RWRMN
WEATHER ROUNDUP FOR MINNESOTA
NATIONAL WEATHER SERVICE TWIN CITIES/CHANHASSEN MN
600 PM CST TUE NOV 21 2017


NOTE: "FAIR" INDICATES FEW OR NO CLOUDS BELOW 12,000 FEET WITH NO
SIGNIFICANT WEATHER AND/OR OBSTRUCTIONS TO VISIBILITY. N/A MEANS
CURRENT SKY AND/OR WEATHER CONDITIONS ARE NOT AVAILABLE.

MNZ060>063-068>070-220100-
   Twin Cities Metro

CITY           SKY/WX    TMP DP  RH WIND       PRES   REMARKS
TWIN CITIES    CLEAR     25  11  55 NW15      30.25R WCI  13
6HR MIN TEMP:  25; 6HR MAX TEMP:  29;

ST PAUL        CLEAR     25   9  50 NW18G29   30.26R WCI  11
CRYSTAL        CLEAR     24   8  50 NW16      30.25R WCI  11
BLAINE         CLEAR     27  10  50 NW18      30.24R WCI  13
LAKEVILLE      CLEAR     21  10  63 NW14      30.24R WCI   8
EDEN PRAIRIE   CLEAR     25  10  53 NW14      30.25R WCI  13
6HR MIN TEMP:  25; 6HR MAX TEMP:  29;

SOUTH ST PAUL  CLEAR     26   9  48 NW12      30.24R WCI  16
LAKE ELMO      FAIR      27  10  50 NW13      30.24R WCI  16
$$
MNZ001>005-007-008-013>017-022>024-027-028-220100-
   Northwest Minnesota

CITY           SKY/WX    TMP DP  RH WIND       PRES   REMARKS
BEMIDJI        CLOUDY    14   8  76 W10       30.25S WCI   2
HALLOCK        CLOUDY    18  10  73 NW12      30.30F WCI   5
ROSEAU         CLEAR     18  10  73 W7        30.26R WCI   8
WARROAD        CLEAR     18  10  73 W10       30.24S WCI   6
CROOKSTON      CLOUDY    16  10  79 NW8       30.34S WCI   5
FOSSTON        CLOUDY    12   7  79 W7        30.29F WCI   2
DETROIT LAKES  CLOUDY    18  12  79 NW7       30.31S WCI   8
MOORHEAD       CLOUDY    18   9  68 NW9       30.36R WCI   6
PARK RAPIDS    CLOUDY    15   8  73 NW13      30.25S WCI   1
MAHNOMEN       FAIR      13   8  78 NW6       30.30S WCI   4
$$
MNZ006-009>011-018-025>026-220100-
   North Central Minnesota

CITY           SKY/WX    TMP DP  RH WIND       PRES   REMARKS
BAUDETTE       MOCLDY    15   8  73 W7        30.21R WCI   5
FLAG ISLAND    CLEAR     18   9  68 NW14      30.21S WCI   4
INTL FALLS       N/A     16   9  74 W8        30.19R WCI   5
6HR MIN TEMP:  15; 6HR MAX TEMP:  18; 6HR PCP: TRACE;

WASKISH        PTCLDY    18  12  79 W14G20    30.24R WCI   4
BIG FORK       FLURRIES  16   9  73 W5        30.21R WCI   9
LONGVILLE      FLURRIES  16   9  73 NW7G16    30.25R WCI   6
GRAND RAPIDS   FLURRIES  16   8  71 NW14      30.23R WCI   2
CRANE LAKE     FLURRIES  16  10  79 W6        30.18S WCI   7
ORR            CLOUDY    16   9  73 W8        30.16R WCI   5
COOK           FLURRIES  16  10  79 W10       30.18R WCI   3
WALKER         FLURRIES  15   7  70 NW14      30.25R WCI   1
$$
MNZ012-019>021-037-220100-
   Northeast Minnesota

CITY           SKY/WX    TMP DP  RH WIND       PRES   REMARKS
DULUTH         FLURRIES  16   8  71 NW12G22   30.17R WCI   3
6HR MIN TEMP:  16; 6HR MAX TEMP:  22; 6HR PCP: TRACE;

ELY            CLOUDY    16   9  73 NW7       30.14R WCI   6
HIBBING        CLOUDY    15   7  70 NW14      30.19R WCI   0
EVELETH        MIX PCPN  17   8  65 NW15      30.19R WCI   3
DULUTH HARBOR  CLOUDY    21  10  63 NW18      30.24R WCI   6
TWO HARBORS    CLOUDY    19  10  68 W3        30.16R
SILVER BAY     CLOUDY    18   9  68 NW6       30.14R WCI   9
GRAND MARAIS     N/A     22  11  62 VRB5      30.14R WCI  16
G MARAIS ARPRT LGT SNOW  14   7  73 NW9G18    30.04R WCI   2
$$
MNZ029>031-032-039>041-046>048-054>057-064-220100-
   West Central Minnesota

CITY           SKY/WX    TMP DP  RH WIND       PRES   REMARKS
FERGUS FALLS   CLOUDY    16   9  73 NW10      30.36R WCI   3
WHEATON        CLOUDY    19   9  63 W9        30.38R WCI   9
MORRIS         CLEAR     19  10  68 NW9       30.32S WCI   9
ALEXANDRIA     CLEAR     19  10  68 NW14      30.29R WCI   6
ELBOW LAKE     FAIR      18  10  69 W12       30.33R WCI   5
WADENA         CLEAR     14   9  79 NW12G17   30.28R WCI   0
GLENWOOD       CLEAR     18  10  73 NW15      30.29R WCI   3
APPLETON       CLEAR     21  10  63 NW9       30.34S WCI  11
BENSON         CLEAR     19   9  63 N9        30.34S WCI   9
ORTONVILLE     CLOUDY    19   9  63 MISG      30.35R
MADISON        CLEAR     23  10  58 NW8       30.35S WCI  14
WILLMAR        FAIR      21  12  68 W9        30.32S WCI  11
$$
MNZ033>034-036-042>043-049>051-058-059-220100-
   Central Minnesota

CITY           SKY/WX    TMP DP  RH WIND       PRES   REMARKS
ST CLOUD       PTCLDY    20  10  65 NW18      30.27R WCI   5
6HR MIN TEMP:  20; 6HR MAX TEMP:  27;

SAUK CENTRE    FAIR      19  10  70 NW10      30.29R WCI   7
PAYNESVILLE    CLEAR     20  13  73 NW12      30.30R WCI   8
AITKIN         LGT RAIN  18   9  68 NW8       30.24R WCI   7
PINE RIVER     CLOUDY    16   9  73 NW6       30.29R WCI   7
BRAINERD       PTCLDY    18   8  65 NW13G21   30.26R WCI   5
STAPLES        MOCLDY    16   9  73 NW12      30.28R WCI   3
LONG PRAIRIE   FAIR      18  10  73 W9        30.28R WCI   6
LITTLE FALLS   PTCLDY    19   5  53 NW9G23    30.28R WCI   9
LITCHFIELD     CLEAR     21  12  68 NW12G18   30.30R WCI   9
BUFFALO        CLEAR     23  11  60 W9        30.28R WCI  13
MAPLE LAKE     PTCLDY    23  13  66 NW9G23    30.28R WCI  13
HUTCHINSON     CLOUDY    22  13  67 W15       30.30R WCI   9
$$
MNZ037-044-045-052-053-220100-
   East Central Minnesota

CITY           SKY/WX    TMP DP  RH WIND       PRES   REMARKS
PRINCETON      PTCLDY    21  10  63 W15G21    30.26R WCI   8
MORA           PTCLDY    23  10  58 NW13G18   30.25R WCI  11
CAMBRIDGE      PTCLDY    25  10  54 W9        30.25R WCI  15
RUSH CITY      PTCLDY    23  10  58 NW8       30.22R WCI  14
MOOSE LAKE     PTCLDY    19   9  63 NW10G17   30.22R WCI   8
HINCKLEY       FAIR      23  12  63 NW9G16    30.23R WCI  13
CLOQUET        CLOUDY    18   7  62 W12G22    30.19R WCI   5
MCGREGOR       CLOUDY    19  10  68 NW14      30.24R WCI   6
$$
MNZ071>073-080-081-089-090-097-098-220100-
   Southwest Minnesota

CITY           SKY/WX    TMP DP  RH WIND       PRES   REMARKS
MONTEVIDEO     CLEAR     19   7  58 N7        30.34S WCI  10
GRANITE FALLS  CLEAR     22  11  63 NW9       30.35S WCI  12
CANBY          CLEAR     21  10  60 NW7       30.35S WCI  13
MARSHALL       CLEAR     20   9  62 NW6       30.34R WCI  12
REDWOOD FALLS  CLEAR     23   8  52 NW13      30.33R WCI  11
OLIVIA         CLEAR     21  12  68 NW13      30.31S WCI   9
PIPESTONE      CLEAR     21   7  53 NW10      30.31S WCI  10
WINDOM           N/A     21   7  53 NW12      30.30R WCI   9
WORTHINGTON    CLEAR     21   8  57 NW9       30.32R WCI  11
JACKSON        PTCLDY    23   9  54 NW16G23   30.31R WCI  10
SLAYTON        CLEAR     22   8  56 NW8       30.32R WCI  12
$$
MNZ065>067-074>077-082>085-091>093-220100-
   South Central Minnesota

CITY           SKY/WX    TMP DP  RH WIND       PRES   REMARKS
MANKATO        CLEAR     23  11  60 NW20      30.28R WCI   8
NEW ULM        CLEAR     21   9  58 NW12G22   30.30R WCI   9
ST JAMES       CLEAR     23  10  58 NW13      30.32R WCI  11
FAIRMONT       CLEAR     23  11  60 NW14      30.30R WCI  11
GLENCOE        CLEAR     24  12  61 NW13      30.28R WCI  12
FARIBAULT      CLEAR     25  12  58 W9        30.25R WCI  15
OWATONNA       CLEAR     21  12  68 W10       30.24R WCI  10
WASECA         CLEAR     23  12  63 W14       30.27R WCI  11
ALBERT LEA     CLEAR     23  10  58 NW10      30.25R WCI  12
$$
MNZ078>079-086>088-094>096-220100-
   Southeast Minnesota

CITY           SKY/WX    TMP DP  RH WIND       PRES   REMARKS
ROCHESTER      CLEAR     21  13  71 NW14      30.19R WCI   8
6HR MIN TEMP:  21; 6HR MAX TEMP:  28;

RED WING       CLEAR     27   7  43 NW7       30.22R WCI  19
STANTON        CLEAR     24  12  61 W8        30.23R WCI  15
DODGE CENTER   CLEAR     21  10  63 W9        30.21R WCI  11
WINONA         CLEAR     30  16  55 NW8       30.21R WCI  23
AUSTIN         CLEAR     23  12  63 NW10      30.23R WCI  12
PRESTON        CLEAR     21  12  66 NW7       30.19R WCI  13
$$
ABBREVIATIONS USED IN REMARKS
   TC - TEMPERATURES IN CELSIUS
  WCI - WIND CHILL INDEX
   HX - HEAT INDEX
  VSB - VISIBILITY
$$




USA.gov is the U.S. government's official web portal to all federal, state and local government web resources and services.